Location: Observatoire
(46.1952°N, 5.3391°E)
Time: 07:26:32
(UTC+02:00)

UKube-1 - Visible Passes

Search period start: 16 April 2024 00:00
Search period end: 26 April 2024 00:00
Orbit: 589 x 591 km, 98.3° (Epoch: 15 April)

Date Brightness Start Highest point End Pass type
(mag) Time Alt. Az. Time Alt. Az. Time Alt. Az.
16 Apr ? 02:58:21 10° N 03:00:32 29° N 03:00:32 29° N visible
17 Apr ? 01:32:09 10° NE 01:32:12 10° NE 01:32:12 10° NE visible
17 Apr ? 03:06:25 10° N 03:08:44 30° N 03:08:44 30° N visible
18 Apr ? 01:39:49 10° NE 01:40:23 12° NE 01:40:23 12° NE visible
18 Apr ? 03:14:28 10° N 03:16:55 30° NNW 03:16:55 30° NNW visible
19 Apr ? 01:47:31 10° NE 01:48:32 15° NE 01:48:32 15° NE visible
19 Apr ? 03:22:32 10° N 03:25:05 29° NNW 03:25:05 29° NNW visible
20 Apr ? 01:55:17 10° NE 01:56:40 18° NE 01:56:40 18° NE visible
20 Apr ? 03:30:36 10° N 03:33:13 27° NW 03:33:13 27° NW visible
21 Apr ? 02:03:03 10° NNE 02:04:47 21° NE 02:04:47 21° NE visible
21 Apr ? 03:38:40 10° N 03:41:19 24° NW 03:41:19 24° NW visible
22 Apr ? 02:10:50 10° NNE 02:12:52 24° NE 02:12:52 24° NE visible
22 Apr ? 03:46:45 10° NNW 03:49:24 21° NW 03:49:24 21° NW visible
23 Apr ? 02:18:38 10° NNE 02:20:56 29° NE 02:20:56 29° NE visible
23 Apr ? 03:54:51 10° NNW 03:57:28 19° WNW 03:57:28 19° WNW visible
24 Apr ? 02:26:26 10° NNE 02:28:58 34° NE 02:28:58 34° NE visible
24 Apr ? 04:02:58 10° NNW 04:05:30 16° WNW 04:05:30 16° WNW visible
25 Apr ? 02:34:14 10° NNE 02:36:59 39° NNE 02:36:59 39° NNE visible
25 Apr ? 04:11:09 10° NNW 04:13:20 14° WNW 04:13:32 14° WNW visible
